Location: D�derode
(51.8092°N, 10.1065°E)
Time: 00:29:06
(UTC+00:00)

BREEZE-M DEB (TANK) - Pass Details

Date: 25 April 2021
Orbit: 314 x 13086 km, 49.6° (Epoch: 09 May)

Event Time Altitude Azimuth Distance (km) Brightness Sun altitude
Rises 01:37:03 0° 291° (WNW) 5,976 7.9 -18.3°
Reaches altitude 10° 01:42:54 10° 282° (WNW) 3,455 6.6 -17.8°
Enters shadow 01:47:04 22° 255° (WSW) 1,724 4.9 -17.4°
